Вернуться в каталог

STARLINK-33885

АктивенСвязьVLEO
NORAD 63886·PAYLOAD·🇺🇸 United States

Запущен May 10, 2025 с Vandenberg Space Force Base

Loading…

Ближайшие Пролёты (ближайшие 24 часа)

TLE

СвежийSource: CelesTrak SupGP

Эпоха: Sep 15, 2026, 03:16 UTC

1 63886C 25094Y   26258.13659722 -.00014883  00000+0 -51779-3 0  2584
2 63886  69.9986 115.2071 0003020 272.9332 327.2504 15.29582247    19

Отслеживайте STARLINK-33885 в реальном времени с AllMySat

Download on the App Store